This is the latest recevied weather packets stored in our database for station/object N4RCT. If no packets are shown the sender has not sent any weather packets the latest 1 day(s).
| Time | Temp. | Humidity | Pressure | Rain* | Wind** | Luminosity | Snow |
|---|---|---|---|---|---|---|---|
| 1778118612 | 17.78° C | 99% | 1012.4 hPa | 3.05 mm | - | 0 W/m² | - |
| 1778118308 | 17.78° C | 99% | 1012.3 hPa | 0 mm | - | 0 W/m² | - |
| 1778118004 | 17.78° C | 99% | 1011.9 hPa | 0 mm | - | 0 W/m² | - |
| 1778117701 | 17.78° C | 99% | 1012.1 hPa | 1.27 mm | - | 0 W/m² | - |
| 1778117398 | 18.33° C | 99% | 1012 hPa | 7.87 mm | - | 0 W/m² | - |
| 1778117095 | 18.33° C | 99% | 1012 hPa | 19.81 mm | - | 0 W/m² | - |
| 1778116791 | 17.78° C | 99% | 1012.1 hPa | 19.81 mm | - | 0 W/m² | - |
| 1778116488 | 17.78° C | 99% | 1012.2 hPa | 9.65 mm | - | 0 W/m² | - |
| 1778116184 | 18.33° C | 99% | 1012 hPa | 8.89 mm | - | 0 W/m² | - |
| 1778115879 | 17.78° C | 99% | 1012.1 hPa | 15.49 mm | - | 0 W/m² | - |
| 1778115576 | 17.78° C | 99% | 1011.7 hPa | 11.94 mm | - | 0 W/m² | - |
| 1778115273 | 18.33° C | 99% | 1012.3 hPa | 11.94 mm | - | 0 W/m² | - |
| 1778114970 | 17.78° C | 99% | 1012.2 hPa | 8.89 mm | - | 0 W/m² | - |
| 1778114059 | 17.78° C | 99% | 1011.5 hPa | 10.67 mm | - | 0 W/m² | - |
| 1778113451 | 18.33° C | 99% | 1011.7 hPa | 31.75 mm | - | 0 W/m² | - |
| 1778113148 | 18.33° C | 99% | 1012.5 hPa | 19.81 mm | - | 0 W/m² | - |
| 1778112845 | 18.33° C | 99% | 1011.7 hPa | 16.76 mm | - | 0 W/m² | - |
| 1778110722 | 19.44° C | 96% | 1011.6 hPa | 10.67 mm | - | 0 W/m² | - |
| 1778109810 | 20° C | 91% | 1011.1 hPa | 0 mm | - | 2 W/m² | - |
| 1778108290 | 20.56° C | 88% | 1011.1 hPa | 0 mm | - | 8 W/m² | - |
| 1778107987 | 20.56° C | 88% | 1011.3 hPa | 0 mm | - | 4 W/m² | - |
| 1778107381 | 20.56° C | 88% | 1011.2 hPa | 0 mm | - | 10 W/m² | - |
| 1778107077 | 21.11° C | 89% | 1011.1 hPa | 0 mm | - | 3 W/m² | - |
| 1778106165 | 21.67° C | 87% | 1010.9 hPa | 0 mm | - | 10 W/m² | - |
| 1778105863 | 21.67° C | 86% | 1010.9 hPa | 0 mm | - | 3 W/m² | - |
* Rain latest hour (hover to see other rain measurements)
** Current wind speed in m/s (hover to see current wind gust speed)